When you browse on this site, cookies collect data to enhance your experience and personalize the content and advertising you see.
Visit our Privacy Policy to learn more. By continuing to use the site, you agree to this use of cookies and data.
  • In Hungary
  • List of Countries
  • For 7 days
  • Water Temperature
  • Satellite Maps
  • Weather Map
  • News
  • Weather Widgets
  • user-avatar
    Login

    Hourly Weather Lubiatowko

    Today, 21 January, Monday

    Time Temperature Precipitation Wind Pressure Humidity
    00:00 -3°C° 0 mm 1 mps 756 mmHg 78%
    01:00 -3°C° 0 mm 1 mps 756 mmHg 79%
    02:00 -3°C° 0 mm 1 mps 756 mmHg 79%
    03:00 -3°C° 0 mm 1 mps 756 mmHg 80%
    04:00 -4°C° 0 mm 1 mps 756 mmHg 81%
    05:00 -4°C° 0 mm 1 mps 756 mmHg 81%
    06:00 -4°C° 0 mm 1 mps 756 mmHg 81%
    07:00 -4°C° 0 mm 1 mps 756 mmHg 81%
    08:00 -3°C° 0 mm 1 mps 756 mmHg 78%
    09:00 -3°C° 0 mm 1 mps 756 mmHg 74%
    10:00 -2°C° 0 mm 1 mps 757 mmHg 71%
    11:00 -3°C° 0 mm 2 mps 756 mmHg 67%
    12:00 -3°C° 0 mm 2 mps 756 mmHg 62%
    13:00 -2°C° 0 mm 2 mps 756 mmHg 58%
    14:00 -2°C° 0 mm 2 mps 756 mmHg 60%
    15:00 -3°C° 0 mm 2 mps 755 mmHg 62%
    16:00 -1°C° 0 mm 1 mps 755 mmHg 64%
    17:00 -2°C° 0 mm 1 mps 755 mmHg 65%
    18:00 -4°C° 0 mm 2 mps 755 mmHg 66%
    19:00 -4°C° 0 mm 2 mps 754 mmHg 67%
    20:00 -4°C° 0 mm 2 mps 754 mmHg 68%
    21:00 -5°C° 0 mm 2 mps 754 mmHg 68%
    22:00 -5°C° 0 mm 2 mps 754 mmHg 69%
    23:00 -5°C° 0 mm 2 mps 754 mmHg 70%

    Tomorrow, 22 January, Tuesday

    Time Temperature Precipitation Wind Pressure Humidity
    00:00 -5°C° 0 mm 2 mps 753 mmHg 71%
    01:00 -5°C° 0 mm 2 mps 753 mmHg 71%
    02:00 -5°C° 0 mm 2 mps 752 mmHg 71%
    03:00 -5°C° 0 mm 2 mps 752 mmHg 71%
    04:00 -5°C° 0 mm 2 mps 751 mmHg 71%
    05:00 -5°C° 0 mm 2 mps 751 mmHg 70%
    06:00 -5°C° 0 mm 2 mps 751 mmHg 70%
    07:00 -3°C° 0 mm 1 mps 751 mmHg 69%
    08:00 -3°C° 0 mm 1 mps 750 mmHg 66%
    09:00 -2°C° 0 mm 1 mps 750 mmHg 63%
    10:00 -2°C° 0 mm 1 mps 750 mmHg 60%
    11:00 -1°C° 0 mm 1 mps 749 mmHg 57%
    12:00 0°C° 0 mm 1 mps 749 mmHg 54%
    13:00 0°C° 0 mm 1 mps 748 mmHg 51%
    14:00 0°C° 0 mm 1 mps 748 mmHg 54%
    15:00 -3°C° 0 mm 2 mps 747 mmHg 57%
    16:00 -3°C° 0 mm 2 mps 747 mmHg 59%
    17:00 -4°C° 0 mm 2 mps 747 mmHg 62%
    18:00 -4°C° 0 mm 2 mps 746 mmHg 64%
    19:00 -5°C° 0 mm 2 mps 746 mmHg 67%
    20:00 -5°C° 0 mm 2 mps 746 mmHg 68%
    21:00 -5°C° 0 mm 2 mps 746 mmHg 69%
    22:00 -5°C° 0 mm 2 mps 746 mmHg 70%
    23:00 -5°C° 0 mm 2 mps 745 mmHg 72%

    Day after tomorrow, 23 January, Wednesday

    Time Temperature Precipitation Wind Pressure Humidity
    00:00 -5°C° 0 mm 2 mps 745 mmHg 73%
    01:00 -6°C° 0 mm 3 mps 745 mmHg 75%
    02:00 -7°C° 0 mm 3 mps 744 mmHg 77%
    03:00 -7°C° 0 mm 3 mps 744 mmHg 79%
    04:00 -7°C° 0 mm 3 mps 744 mmHg 82%
    05:00 -7°C° 0 mm 3 mps 744 mmHg 82%
    06:00 -7°C° 0 mm 3 mps 744 mmHg 83%
    07:00 -7°C° 0 mm 3 mps 744 mmHg 83%
    08:00 -8°C° 0 mm 4 mps 744 mmHg 82%
    09:00 -7°C° 0 mm 4 mps 745 mmHg 81%
    10:00 -7°C° 0 mm 4 mps 745 mmHg 80%
    11:00 -5°C° 0 mm 4 mps 745 mmHg 76%
    12:00 -5°C° 0 mm 4 mps 745 mmHg 73%
    13:00 -4°C° 0 mm 4 mps 745 mmHg 69%
    14:00 -5°C° 0 mm 4 mps 745 mmHg 70%
    15:00 -5°C° 0 mm 4 mps 745 mmHg 71%
    16:00 -5°C° 0 mm 3 mps 745 mmHg 72%
    17:00 -5°C° 0 mm 3 mps 746 mmHg 73%
    18:00 -7°C° 0 mm 4 mps 746 mmHg 74%
    19:00 -7°C° 0 mm 4 mps 747 mmHg 75%
    20:00 -7°C° 0 mm 4 mps 747 mmHg 76%
    21:00 -6°C° 0 mm 3 mps 747 mmHg 77%
    22:00 -7°C° 0 mm 3 mps 748 mmHg 78%
    23:00 -7°C° 0 mm 3 mps 748 mmHg 79%

    24 January, Thursday

    Time Temperature Precipitation Wind Pressure Humidity
    00:00 -7°C° 0 mm 3 mps 748 mmHg 80%
    01:00 -7°C° 0 mm 3 mps 749 mmHg 81%
    02:00 -7°C° 0 mm 3 mps 749 mmHg 81%
    03:00 -8°C° 0 mm 3 mps 749 mmHg 81%
    04:00 -8°C° 0 mm 3 mps 749 mmHg 81%
    05:00 -8°C° 0 mm 3 mps 749 mmHg 82%
    06:00 -8°C° 0 mm 3 mps 750 mmHg 82%
    07:00 -8°C° 0 mm 3 mps 750 mmHg 82%
    08:00 -8°C° 0 mm 3 mps 751 mmHg 79%
    09:00 -7°C° 0 mm 3 mps 751 mmHg 76%
    10:00 -8°C° 0 mm 4 mps 752 mmHg 73%
    11:00 -6°C° 0 mm 3 mps 752 mmHg 71%
    12:00 -6°C° 0 mm 3 mps 752 mmHg 68%
    13:00 -5°C° 0 mm 3 mps 752 mmHg 65%
    14:00 -6°C° 0 mm 3 mps 752 mmHg 66%
    15:00 -5°C° 0 mm 2 mps 752 mmHg 68%
    16:00 -5°C° 0 mm 2 mps 752 mmHg 69%
    17:00 -5°C° 0 mm 2 mps 752 mmHg 70%
    18:00 -5°C° 0 mm 2 mps 752 mmHg 71%
    19:00 -6°C° 0 mm 2 mps 753 mmHg 72%
    20:00 -6°C° 0 mm 2 mps 753 mmHg 73%
    21:00 -6°C° 0 mm 2 mps 753 mmHg 74%
    22:00 -6°C° 0 mm 2 mps 753 mmHg 74%
    23:00 -4°C° 0 mm 1 mps 753 mmHg 76%

    25 January, Friday

    Time Temperature Precipitation Wind Pressure Humidity
    00:00 -4°C° 0 mm 1 mps 753 mmHg 77%
    01:00 -4°C° 0 mm 1 mps 753 mmHg 79%
    02:00 -4°C° 0 mm 1 mps 753 mmHg 79%
    03:00 -4°C° 0 mm 1 mps 753 mmHg 80%
    04:00 -4°C° 0 mm 1 mps 753 mmHg 80%
    05:00 -6°C° 0 mm 1 mps 753 mmHg 82%
    06:00 -6°C° 0 mm 0 mps 753 mmHg 83%
    07:00 -6°C° 0 mm 0 mps 753 mmHg 84%
    08:00 -6°C° 0 mm 0 mps 753 mmHg 81%
    09:00 -4°C° 0 mm 1 mps 754 mmHg 78%
    10:00 -4°C° 0 mm 1 mps 754 mmHg 75%
    11:00 -3°C° 0 mm 1 mps 753 mmHg 71%
    12:00 -4°C° 0 mm 2 mps 753 mmHg 67%
    13:00 -4°C° 0 mm 2 mps 753 mmHg 63%
    14:00 -4°C° 0 mm 2 mps 752 mmHg 65%
    15:00 -4°C° 0 mm 2 mps 752 mmHg 66%
    16:00 -4°C° 0 mm 2 mps 751 mmHg 67%
    17:00 -5°C° 0 mm 2 mps 751 mmHg 69%
    18:00 -5°C° 0 mm 2 mps 751 mmHg 70%
    19:00 -6°C° 0 mm 3 mps 750 mmHg 72%
    20:00 -6°C° 0 mm 3 mps 750 mmHg 70%
    21:00 -7°C° 0 mm 4 mps 750 mmHg 69%
    22:00 -7°C° 0 mm 4 mps 749 mmHg 68%
    23:00 -6°C° 0 mm 5 mps 749 mmHg 65%

    26 January, Saturday

    Time Temperature Precipitation Wind Pressure Humidity
    00:00 -6°C° 0 mm 5 mps 748 mmHg 62%
    01:00 -5°C° 0 mm 5 mps 747 mmHg 59%
    02:00 -5°C° 0 mm 5 mps 747 mmHg 64%
    03:00 -5°C° 0 mm 5 mps 746 mmHg 69%
    04:00 -4°C° 0 mm 5 mps 745 mmHg 74%
    05:00 -4°C° 0.4 mm 5 mps 745 mmHg 80%
    06:00 -4°C° 0.4 mm 5 mps 745 mmHg 86%
    07:00 -2°C° 0.4 mm 5 mps 744 mmHg 92%
    08:00 -2°C° 0.3 mm 5 mps 744 mmHg 92%
    09:00 -1°C° 0.3 mm 5 mps 744 mmHg 92%
    10:00 -1°C° 0.3 mm 5 mps 744 mmHg 93%
    11:00 0°C° 0.6 mm 5 mps 743 mmHg 93%
    12:00 0°C° 0.6 mm 5 mps 743 mmHg 93%
    13:00 0°C° 0.6 mm 5 mps 743 mmHg 93%
    14:00 0°C° 0.2 mm 5 mps 742 mmHg 93%
    15:00 0°C° 0.2 mm 5 mps 742 mmHg 93%
    16:00 0°C° 0.2 mm 4 mps 742 mmHg 93%
    17:00 0°C° 0.1 mm 4 mps 741 mmHg 93%
    18:00 0°C° 0.1 mm 4 mps 741 mmHg 93%
    19:00 0°C° 0.1 mm 4 mps 741 mmHg 93%
    20:00 0°C° 0.2 mm 4 mps 740 mmHg 93%
    21:00 0°C° 0.2 mm 4 mps 740 mmHg 92%
    22:00 0°C° 0.2 mm 4 mps 739 mmHg 92%
    23:00 0°C° 0.2 mm 4 mps 739 mmHg 92%
    Show more